Flag for Germany Weather past 2 weeks in Hamburg, Hamburg, Germany

Now
45 °F

Drizzle. Low clouds.


Feels Like: 37 °F
Forecast: 47 / 53 °F
Wind: 17 mph from Southwest

Location: Hamburg-Fuhlsbuettel

Current Time: Dec 21, 2014 at 8:33:07 PM

Latest Report: Dec 21, 2014 at 8:20 PM


Visibility: 3 mi

Pressure: 29.95 "Hg

Humidity: 93%

Dew point: 43 °F

Location of HamburgLocation

Historic Weather in Hamburg — Graph

°F

Hamburg temperature yesterday

Maximum temperature yesterday: 45 °F (at 6:20 AM)
Minimum temperature yesterday: 36 °F (at 10:20 AM)
Average temperature yesterday: 42 °F

Past Weeks' High & Low Weather Summary

 TemperatureHumidityPressure
High54 °F (Dec 18, 7:20 PM)100% (Dec 6, 7:20 PM)30.30 "Hg (Dec 6, 7:20 PM)
Low34 °F (Dec 6, 7:20 PM)70% (Dec 10, 4:20 AM)29.18 "Hg (Dec 12, 12:50 PM)
Average41 °F89%29.80 "Hg
* Reported Dec 6 7:20 PM — Dec 21 7:20 PM, Hamburg, Weather by CustomWeather, © 2014

Note: Actual official high and low records may vary slightly from our data, if they occured in-between our weather recording intervals... More about our weather records

Advertising

Hamburg weather history for previous 24 hours

 ConditionsComfort  
Time TempWeatherWind HumidityBarometerVisibility
7:20 PM
Dec 21
43 °FPassing clouds.16 mph100%29.98 "Hg4 mi
6:50 PM43 °FPassing clouds.16 mph100%29.98 "Hg3 mi
6:20 PM43 °FPassing clouds.16 mph100%30.01 "Hg4 mi
5:50 PM43 °FPassing clouds.18 mph100%30.01 "Hg4 mi
5:20 PM43 °FPassing clouds.18 mph93%30.01 "Hg4 mi
4:50 PM43 °FPassing clouds.17 mph93%30.04 "Hg4 mi
4:20 PM43 °FPartly cloudy.17 mph93%30.04 "HgN/A
3:50 PM43 °FDrizzle. Broken clouds.15 mph93%30.04 "HgN/A
3:20 PM45 °FDrizzle. Broken clouds.16 mph87%30.07 "HgN/A
2:50 PM45 °FPartly sunny.14 mph87%30.09 "HgN/A
2:20 PM45 °FLight rain. Partly sunny.13 mph87%30.09 "HgN/A
1:50 PM45 °FLight rain. Partly sunny.14 mph87%30.12 "HgN/A
1:20 PM45 °FPartly sunny.15 mph87%30.12 "HgN/A
12:20 PM43 °FPartly sunny.16 mph87%30.15 "HgN/A
11:50 AM43 °FPartly sunny.15 mph87%30.15 "HgN/A
11:20 AM43 °FBroken clouds.13 mph87%30.15 "HgN/A
10:50 AM43 °FPartly sunny.13 mph87%30.18 "HgN/A
10:20 AM41 °FBroken clouds.10 mph93%30.18 "HgN/A
9:50 AM41 °FPartly sunny.10 mph87%30.18 "HgN/A
9:20 AM41 °FPartly sunny.10 mph87%30.18 "HgN/A
8:50 AM39 °FPartly sunny.7 mph93%30.18 "HgN/A
8:20 AM41 °FPassing clouds.7 mph87%30.18 "HgN/A
7:50 AM41 °FPassing clouds.10 mph87%30.18 "HgN/A
7:20 AM41 °FPassing clouds.9 mph87%30.15 "HgN/A
6:50 AM41 °FPassing clouds.10 mph87%30.15 "HgN/A
6:20 AM43 °FPassing clouds.9 mph81%30.15 "HgN/A
5:50 AM41 °FPassing clouds.8 mph87%30.15 "HgN/A
5:20 AM41 °FClear.8 mph87%30.15 "Hg10 mi
4:50 AM41 °FClear.9 mph87%30.12 "Hg10 mi
4:20 AM41 °FClear.7 mph87%30.12 "Hg10 mi
3:50 AM43 °FPassing clouds.8 mph81%30.12 "HgN/A
3:20 AM43 °FPassing clouds.9 mph81%30.12 "HgN/A
2:50 AM43 °FPassing clouds.13 mph87%30.09 "HgN/A
2:20 AM43 °FPassing clouds.13 mph81%30.07 "HgN/A
1:20 AM43 °FPassing clouds.12 mph81%30.04 "HgN/A
12:50 AM41 °FPassing clouds.14 mph87%30.04 "HgN/A
12:20 AM41 °FPassing clouds.17 mph87%30.01 "HgN/A
11:50 PM
Dec 20
41 °FPassing clouds.20 mph87%29.98 "HgN/A
11:20 PM43 °FSprinkles. Passing clouds.23 mph81%29.98 "HgN/A
10:50 PM45 °FPassing clouds.17 mph71%29.95 "HgN/A
10:20 PM43 °FScattered showers. Passing clouds.18 mph76%29.95 "HgN/A
9:50 PM45 °FSprinkles. Passing clouds.17 mph71%29.92 "HgN/A
9:20 PM43 °FPassing clouds.20 mph76%29.92 "HgN/A
8:50 PM41 °FPassing clouds.10 mph81%29.89 "HgN/A
8:20 PM41 °FPassing clouds.13 mph76%29.89 "HgN/A
Weather by CustomWeather, © 2014

See weather overviewHow to use our weather pages